Temp
62 62 62 62 62 62 62 62 62 62 62 62 63 63 64 64 64 63 62 61 62 62 61 60 59 58 57 56 57 57 57 56 56 55 55 55 54 54 53 53 53 53 53 53 53 53 53 54 55 56 56 56 57 57 57 57 56 55 54 54 56 57 57 57 58 59 59 59 60
62 62 62 61 61 62 62 62 62 62 62 62 63 63 63 64 63 62 61 61 61 61 60 59 58 57 56 56 56 56 56 55 55 54 54 53 53 53 53 53 53 53 54 53 53 53 53 53 54 54 55 56 57 57 57 57 57 56 55 55 55 56 57 58 58 58 58 59 59
62 62 62 62 61 62 62 62 62 62 62 62 62 61 61 62 61 61 60 60 60 60 59 58 57 56 55 55 55 55 54 54 54 53 53 53 52 52 52 53 53 54 55 54 53 53 53 53 54 54 54 54 55 55 55 55 56 55 55 54 54 54 55 56 57 57 58 59 59
62 62 62 62 62 62 63 64 63 63 62 61 61 60 60 60 60 60 59 58 58 58 57 56 56 55 54 54 53 53 53 53 53 52 52 51 51 51 51 52 52 53 53 52 52 52 52 52 52 52 52 50 51 53 54 55 54 54 53 52 52 52 53 53 53 54 55 57 57
62 62 62 62 62 62 63 64 64 63 62 60 60 60 60 59 59 58 57 57 56 55 55 54 54 53 53 52 52 52 52 52 52 52 51 51 50 50 51 51 51 51 51 51 51 51 50 50 51 51 50 50 51 51 52 53 54 53 52 51 51 51 51 51 51 51 52 53 53
61 61 61 61 61 62 63 63 63 63 62 60 60 59 59 59 58 58 57 55 54 53 53 54 53 53 53 52 51 51 51 51 51 51 51 50 50 50 50 50 50 50 49 50 51 52 52 52 53 52 52 52 52 52 52 52 53 53 52 51 50 50 50 50 50 50 51 52 52
59 60 60 60 61 62 62 62 62 62 61 60 60 59 58 57 57 56 55 55 54 54 54 54 54 53 52 52 51 51 51 50 50 50 49 49 48 48 48 49 49 49 50 50 51 52 53 53 52 52 52 52 51 51 51 52 53 53 52 50 49 48 49 49 49 50 51 52 51
58 59 59 60 61 61 61 60 60 60 60 59 59 58 57 56 55 55 55 55 54 54 53 53 52 52 52 52 52 51 50 50 50 49 48 48 47 48 48 48 49 50 50 50 51 51 52 52 51 51 50 50 50 50 50 51 51 51 50 49 48 47 48 48 48 49 50 52 51
57 57 58 59 60 60 59 59 59 59 59 58 57 56 56 56 55 55 54 53 53 52 52 52 52 52 52 52 51 50 50 49 49 48 47 47 48 48 48 49 49 49 50 50 50 51 51 51 50 50 50 49 49 49 49 50 50 50 49 47 47 47 47 47 48 49 49 50 50
55 55 55 56 56 57 57 57 57 57 57 55 55 55 55 56 55 54 53 53 52 52 51 51 52 52 52 51 50 49 48 48 48 48 48 48 48 48 48 49 49 50 50 50 50 50 50 50 50 49 49 49 49 49 49 49 49 48 48 47 47 47 47 47 47 48 48 49 48
53 53 53 53 53 53 54 54 54 54 54 54 53 53 54 54 53 53 53 53 53 52 50 50 51 52 51 49 48 48 48 48 48 48 48 48 49 49 49 49 49 49 50 50 49 49 50 50 49 49 49 48 48 49 49 49 48 48 47 46 46 46 46 46 46 47 47 47 47
51 51 51 51 51 51 52 51 51 51 51 51 51 51 51 51 51 51 52 53 52 50 48 48 50 50 50 49 48 48 48 48 48 48 48 48 49 49 49 49 49 49 49 49 49 49 49 49 49 48 48 47 48 48 48 48 48 47 46 46 46 46 45 45 46 46 46 46 46
50 50 50 49 50 50 50 50 49 49 49 49 49 49 49 49 49 49 50 50 50 49 47 47 47 48 48 48 48 48 48 48 48 48 48 47 48 48 48 49 48 48 47 47 48 48 48 48 48 48 48 47 47 47 48 48 47 47 46 46 45 45 45 44 45 45 46 46 46
49 49 49 49 49 49 49 49 49 48 48 48 48 48 48 47 48 48 48 48 47 47 46 46 46 47 47 48 48 48 48 48 48 47 47 46 46 46 46 47 47 47 46 46 47 48 48 47 47 47 47 47 47 46 46 47 47 47 46 46 45 45 44 44 45 45 45 45 45
48 48 48 48 48 48 49 48 48 48 47 47 47 47 47 46 47 47 47 46 46 46 46 46 46 47 47 47 47 47 47 48 47 46 46 46 46 46 45 45 46 46 47 47 46 46 47 47 47 47 47 46 46 45 46 46 46 46 46 46 45 45 45 45 44 45 45 45 44
47 47 47 47 47 48 48 48 48 47 47 46 46 46 46 46 46 46 46 46 46 46 46 45 46 46 46 47 47 46 46 46 45 45 45 45 45 45 44 45 45 46 47 47 47 46 46 46 46 46 45 45 45 45 45 45 45 45 45 45 45 45 45 44 44 44 44 45 44
47 46 46 47 47 47 47 47 47 47 46 46 45 45 45 45 45 46 46 46 46 46 45 45 45 45 45 46 46 45 44 44 44 43 43 43 43 43 43 44 44 44 45 45 46 45 44 44 45 45 44 44 44 44 44 44 43 43 44 43 44 44 44 44 44 44 44 44 44
46 46 46 47 46 46 46 46 46 46 45 45 44 44 44 45 45 45 45 45 45 45 45 45 45 45 44 44 43 43 43 42 41 41 41 41 41 41 41 41 41 41 41 42 43 42 42 42 42 43 43 44 44 43 43 43 42 42 42 42 42 43 43 44 43 43 43 44 44
46 46 46 46 46 46 46 46 45 45 45 44 44 44 43 44 44 44 44 44 44 44 44 44 44 43 42 41 41 42 42 40 40 39 39 39 38 38 39 39 39 38 38 39 39 39 39 38 39 40 41 42 43 42 42 42 42 42 42 42 42 42 42 42 42 43 43 43 43
46 46 46 46 46 46 46 46 45 45 44 44 44 43 43 43 43 43 43 43 43 42 42 42 42 41 41 41 40 41 41 40 39 38 38 37 37 37 37 37 37 36 36 36 37 37 37 36 37 38 39 41 42 42 42 42 42 42 42 42 42 41 41 42 42 42 42 42 42
45 45 45 45 45 45 45 45 44 44 44 43 42 42 42 42 42 42 42 41 41 41 41 41 41 41 40 40 40 39 39 39 38 38 37 37 37 37 37 36 36 36 35 35 36 36 36 36 36 37 39 40 42 42 42 42 42 41 41 41 41 41 41 41 41 42 42 42 41
44 44 45 45 45 45 45 44 44 43 43 42 41 41 41 41 41 40 40 40 40 40 40 40 40 39 39 39 39 38 38 38 37 37 37 37 37 37 37 36 36 36 35 35 35 35 35 36 37 38 39 40 42 42 42 42 41 41 41 41 40 40 41 41 41 41 41 41 41
44 44 44 44 44 44 44 43 43 42 42 41 41 40 40 40 39 39 40 40 40 40 39 39 38 38 38 37 37 37 37 37 37 37 37 37 37 37 36 35 36 36 36 35 35 36 36 37 38 39 40 41 42 42 42 42 41 41 40 40 40 40 40 41 41 41 40 40 40
43 43 43 43 43 43 43 42 42 42 41 40 40 39 39 39 39 39 39 39 39 39 39 38 37 37 36 36 36 37 37 37 38 38 38 38 37 38 38 38 38 39 39 39 40 40 40 39 40 41 41 42 42 41 41 41 41 41 40 40 40 40 40 40 40 40 40 40 40
42 42 42 42 42 42 42 42 42 41 41 40 39 39 38 38 38 38 38 39 39 39 40 40 39 38 37 36 36 37 37 38 39 39 38 38 39 39 40 40 40 41 41 42 44 45 45 44 43 42 42 42 42 41 41 41 40 40 40 40 40 40 40 39 39 39 39 39 39
42 42 42 42 42 41 41 41 41 41 40 39 38 38 38 38 38 38 38 38 39 39 40 41 41 41 41 39 39 39 39 40 41 41 40 40 40 40 41 41 41 41 41 43 46 47 47 47 46 44 42 41 41 41 41 40 40 40 40 40 40 40 39 38 38 38 38 37 37
42 42 41 41 41 41 41 41 40 40 39 39 38 38 38 37 37 37 38 38 38 38 39 40 41 41 41 41 41 41 41 41 41 41 40 40 40 40 40 41 41 40 41 44 46 47 48 48 47 46 44 41 41 40 40 40 40 40 40 40 40 39 38 38 37 37 37 36 36
42 41 41 41 41 41 40 40 40 39 39 39 38 38 37 37 37 37 37 37 37 37 37 37 38 39 39 38 38 39 39 39 39 39 38 38 38 38 38 39 39 40 42 45 46 47 48 48 48 47 46 43 41 40 40 40 40 39 38 38 38 37 37 37 37 36 36 35 35
42 41 41 41 41 40 39 39 39 39 38 38 37 37 37 36 36 36 36 36 36 36 36 36 37 37 36 36 36 36 36 36 36 36 36 36 37 37 37 37 38 40 42 45 46 47 47 48 48 48 47 45 42 40 40 39 39 38 38 37 37 36 36 36 36 36 35 35 35
41 41 41 41 40 40 39 39 39 38 38 38 37 37 36 36 36 36 36 36 36 36 35 35 35 35 35 35 35 35 35 35 35 35 35 35 36 37 37 38 37 39 42 45 46 47 47 47 48 48 47 46 42 39 38 38 38 37 37 37 37 36 36 37 36 36 36 35 35
41 41 41 40 40 39 39 38 38 38 37 37 37 36 36 36 35 35 35 35 36 36 36 35 35 35 35 35 34 34 34 35 35 35 36 36 38 38 37 37 37 39 42 45 46 46 47 47 47 47 47 47 42 39 37 37 37 37 37 37 37 36 36 36 35 35 35 35 35
41 41 40 40 39 39 38 37 37 37 37 37 37 36 36 35 35 34 34 35 36 36 36 35 35 35 35 35 34 34 34 34 35 36 37 37 37 37 37 37 38 40 42 44 45 46 46 47 47 47 47 46 42 38 36 36 36 37 37 36 36 36 36 36 35 35 34 34 34
40 40 40 40 39 38 37 37 37 37 36 36 36 36 35 34 34 33 34 35 35 35 35 35 35 35 34 35 34 34 34 34 35 37 38 38 37 37 36 37 37 40 42 44 45 45 46 46 47 47 47 45 41 37 36 37 36 36 36 36 36 35 35 35 35 34 33 33 33
40 40 40 39 38 37 37 36 36 36 36 36 35 35 35 34 34 34 35 35 35 35 35 35 34 34 33 33 34 34 34 35 35 35 36 37 36 36 36 36 37 40 43 44 45 45 46 46 47 47 46 44 39 37 36 36 36 35 35 35 34 34 34 33 33 32 32 31 31
40 40 39 38 38 37 36 36 35 36 36 36 35 34 34 34 34 35 36 37 37 37 36 35 35 35 34 34 34 34 35 35 34 34 35 36 36 36 36 36 37 40 43 44 44 45 46 46 46 46 44 41 38 36 36 36 35 34 34 33 33 32 32 31 31 30 30 29 30
40 40 39 38 37 37 36 35 35 35 35 35 35 34 34 33 33 34 37 39 39 39 37 37 37 37 36 36 35 36 35 34 34 35 36 37 37 37 36 36 36 39 42 44 44 45 46 46 46 45 42 39 37 36 35 35 34 33 33 33 32 31 30 29 29 29 29 29 30
40 40 39 38 37 36 36 35 35 35 35 35 34 34 33 33 33 34 37 39 39 39 38 38 38 38 37 37 37 37 36 35 36 37 38 39 38 37 36 35 35 38 41 43 44 45 46 46 45 43 40 37 35 35 35 34 34 33 32 32 30 29 28 28 28 29 29 30 31
40 40 39 39 38 37 36 36 35 35 35 34 34 33 32 32 33 35 37 40 39 39 39 38 38 38 37 37 37 37 37 37 37 38 38 39 38 37 35 34 35 37 40 43 44 45 45 45 44 42 39 36 34 34 34 34 33 32 32 31 29 28 27 27 28 28 29 31 34
40 40 40 39 38 38 37 36 35 35 34 33 33 32 32 32 33 35 38 39 38 38 38 38 38 37 37 37 37 36 36 37 38 38 38 37 38 37 36 34 35 37 39 42 44 45 45 44 43 41 39 36 34 34 34 33 32 32 31 29 29 28 27 27 28 28 30 32 37
41 41 40 40 39 39 38 37 36 35 34 34 33 32 31 31 33 36 38 38 38 38 38 37 37 36 37 38 37 36 36 36 36 37 37 37 38 39 38 35 35 37 39 43 44 45 44 44 42 41 39 36 34 34 34 33 32 31 30 29 28 28 27 27 27 27 28 30 36
42 42 41 41 40 40 39 39 38 37 36 35 34 32 32 32 34 36 38 38 38 38 37 36 35 36 37 38 37 36 35 36 36 36 36 37 38 39 38 35 35 36 38 42 44 44 44 43 42 41 39 35 33 33 34 34 32 31 29 28 27 27 27 27 26 26 27 27 30
MSLP
1014.20 1014.72 1015.12 1015.40 1015.56 1015.72 1015.80 1015.80 1015.80 1015.96 1016.24 1016.48 1016.56 1016.36 1016.04 1015.92 1015.92 1015.92 1015.92 1015.80 1015.72 1015.76 1015.76 1015.76 1015.80 1015.92 1016.04 1016.08 1016.08 1016.12 1016.24 1016.36 1016.48 1016.60 1016.72 1016.88 1017.04 1017.16 1017.28 1017.36 1017.36 1017.44 1017.52 1017.60 1017.64 1017.68 1017.76 1017.80 1017.80 1017.92 1018.00 1018.08 1018.08 1018.16 1018.20 1018.28 1018.32 1018.36 1018.40 1018.40 1018.40 1018.40 1018.44 1018.48 1018.48 1018.52 1018.52 1018.60 1018.60
1014.36 1014.84 1015.24 1015.48 1015.64 1015.84 1016.00 1016.04 1016.08 1016.32 1016.64 1016.72 1016.64 1016.36 1016.04 1015.80 1015.76 1015.88 1015.92 1015.92 1015.88 1015.92 1015.92 1015.96 1016.00 1016.00 1016.04 1016.08 1016.08 1016.16 1016.24 1016.40 1016.52 1016.64 1016.80 1016.96 1017.12 1017.24 1017.32 1017.36 1017.44 1017.48 1017.52 1017.60 1017.64 1017.68 1017.76 1017.84 1017.92 1017.96 1018.04 1018.08 1018.16 1018.20 1018.28 1018.28 1018.32 1018.36 1018.40 1018.44 1018.44 1018.44 1018.44 1018.44 1018.40 1018.40 1018.44 1018.48 1018.52
1014.36 1014.80 1015.12 1015.40 1015.72 1016.04 1016.20 1016.24 1016.20 1016.36 1016.64 1016.60 1016.56 1016.52 1016.36 1016.08 1015.96 1015.92 1015.96 1016.04 1016.20 1016.32 1016.36 1016.28 1016.16 1016.04 1016.04 1016.08 1016.08 1016.20 1016.32 1016.44 1016.56 1016.72 1016.88 1017.08 1017.24 1017.32 1017.44 1017.60 1017.64 1017.60 1017.52 1017.60 1017.64 1017.72 1017.80 1017.88 1017.92 1018.00 1018.08 1018.12 1018.20 1018.24 1018.32 1018.36 1018.32 1018.36 1018.48 1018.52 1018.52 1018.52 1018.48 1018.44 1018.40 1018.36 1018.40 1018.44 1018.48
1014.04 1014.52 1014.92 1015.24 1015.52 1015.64 1015.64 1015.56 1015.56 1015.80 1016.08 1016.20 1016.36 1016.44 1016.40 1016.24 1016.04 1015.92 1016.00 1016.20 1016.44 1016.64 1016.80 1016.72 1016.44 1016.20 1016.08 1016.04 1016.08 1016.20 1016.36 1016.48 1016.64 1016.80 1017.00 1017.16 1017.32 1017.36 1017.44 1017.60 1017.76 1017.72 1017.64 1017.64 1017.72 1017.80 1017.88 1017.92 1018.00 1018.08 1018.12 1018.20 1018.24 1018.28 1018.32 1018.36 1018.40 1018.48 1018.56 1018.64 1018.60 1018.56 1018.52 1018.52 1018.52 1018.52 1018.48 1018.48 1018.52
1013.56 1014.12 1014.68 1015.00 1015.04 1014.84 1014.64 1014.64 1014.76 1014.96 1015.36 1015.72 1016.08 1016.28 1016.36 1016.28 1016.08 1016.04 1016.16 1016.36 1016.64 1016.84 1016.92 1016.84 1016.64 1016.48 1016.36 1016.28 1016.36 1016.44 1016.52 1016.60 1016.72 1016.92 1017.08 1017.24 1017.28 1017.32 1017.40 1017.64 1017.68 1017.68 1017.68 1017.72 1017.76 1017.80 1017.88 1017.92 1018.00 1018.08 1018.16 1018.24 1018.28 1018.32 1018.36 1018.36 1018.44 1018.52 1018.60 1018.64 1018.64 1018.64 1018.64 1018.64 1018.60 1018.56 1018.56 1018.56 1018.56
1013.40 1013.88 1014.32 1014.52 1014.52 1014.48 1014.36 1014.24 1014.36 1014.56 1014.92 1015.36 1015.80 1016.00 1016.12 1016.20 1016.12 1016.08 1016.24 1016.52 1016.80 1016.92 1016.84 1016.72 1016.60 1016.56 1016.56 1016.60 1016.64 1016.64 1016.64 1016.68 1016.84 1017.00 1017.16 1017.32 1017.40 1017.64 1017.80 1017.80 1017.68 1017.64 1017.64 1017.68 1017.72 1017.80 1017.80 1017.92 1018.04 1018.16 1018.24 1018.32 1018.36 1018.40 1018.44 1018.48 1018.48 1018.52 1018.56 1018.64 1018.64 1018.68 1018.72 1018.68 1018.68 1018.64 1018.64 1018.64 1018.64
1013.52 1013.72 1013.96 1014.20 1014.36 1014.52 1014.52 1014.48 1014.44 1014.52 1014.80 1015.16 1015.56 1015.80 1015.92 1016.04 1016.12 1016.24 1016.40 1016.56 1016.60 1016.52 1016.44 1016.40 1016.40 1016.48 1016.60 1016.76 1016.84 1016.84 1016.80 1016.88 1017.00 1017.08 1017.20 1017.44 1017.72 1017.84 1017.80 1017.64 1017.56 1017.56 1017.64 1017.72 1017.80 1017.88 1017.96 1018.04 1018.16 1018.28 1018.32 1018.36 1018.40 1018.44 1018.48 1018.48 1018.48 1018.52 1018.56 1018.64 1018.68 1018.72 1018.76 1018.76 1018.76 1018.72 1018.68 1018.68 1018.68
1013.68 1013.84 1013.96 1014.08 1014.20 1014.32 1014.40 1014.48 1014.52 1014.64 1014.88 1015.12 1015.36 1015.64 1015.84 1016.08 1016.28 1016.44 1016.48 1016.40 1016.20 1016.08 1016.08 1016.16 1016.28 1016.36 1016.52 1016.64 1016.72 1016.80 1016.88 1016.96 1017.04 1017.12 1017.36 1017.64 1017.80 1017.80 1017.64 1017.60 1017.60 1017.64 1017.80 1017.88 1017.92 1018.04 1018.12 1018.20 1018.28 1018.36 1018.40 1018.48 1018.52 1018.52 1018.52 1018.52 1018.52 1018.56 1018.64 1018.72 1018.80 1018.80 1018.80 1018.80 1018.80 1018.80 1018.80 1018.76 1018.80
1013.80 1013.92 1014.04 1014.08 1014.16 1014.24 1014.36 1014.48 1014.56 1014.76 1014.96 1015.16 1015.36 1015.56 1015.80 1016.00 1016.16 1016.20 1016.20 1016.08 1015.96 1015.96 1016.08 1016.20 1016.28 1016.36 1016.40 1016.52 1016.60 1016.72 1016.84 1016.92 1017.12 1017.36 1017.60 1017.72 1017.76 1017.72 1017.68 1017.68 1017.76 1017.88 1017.96 1018.04 1018.12 1018.20 1018.20 1018.28 1018.36 1018.44 1018.48 1018.52 1018.56 1018.56 1018.60 1018.56 1018.60 1018.64 1018.68 1018.76 1018.80 1018.84 1018.84 1018.84 1018.84 1018.84 1018.84 1018.80 1018.84
1013.88 1014.04 1014.12 1014.20 1014.28 1014.36 1014.40 1014.52 1014.64 1014.80 1014.96 1015.20 1015.36 1015.52 1015.64 1015.68 1015.68 1015.72 1015.76 1015.76 1015.80 1015.92 1016.08 1016.12 1016.20 1016.32 1016.40 1016.52 1016.64 1016.80 1017.04 1017.24 1017.48 1017.72 1017.84 1017.80 1017.72 1017.72 1017.76 1017.80 1017.92 1018.04 1018.12 1018.20 1018.24 1018.28 1018.28 1018.36 1018.44 1018.52 1018.52 1018.52 1018.56 1018.60 1018.64 1018.64 1018.64 1018.76 1018.80 1018.84 1018.92 1018.92 1018.92 1018.92 1018.92 1018.92 1018.92 1018.92 1018.96
1013.88 1014.04 1014.16 1014.24 1014.36 1014.40 1014.52 1014.64 1014.80 1014.92 1015.04 1015.12 1015.24 1015.28 1015.28 1015.28 1015.28 1015.36 1015.44 1015.52 1015.64 1015.88 1016.08 1016.08 1016.16 1016.36 1016.60 1016.80 1016.92 1017.08 1017.24 1017.44 1017.56 1017.64 1017.68 1017.68 1017.76 1017.80 1017.84 1017.92 1018.04 1018.12 1018.20 1018.28 1018.36 1018.36 1018.36 1018.40 1018.48 1018.52 1018.56 1018.56 1018.60 1018.64 1018.64 1018.68 1018.76 1018.80 1018.92 1018.92 1018.92 1018.92 1018.96 1019.00 1019.00 1019.00 1019.04 1019.04 1019.08
1013.92 1014.08 1014.16 1014.28 1014.36 1014.48 1014.56 1014.72 1014.88 1014.92 1015.00 1015.04 1015.08 1015.08 1015.08 1015.16 1015.24 1015.24 1015.28 1015.36 1015.56 1015.88 1016.08 1016.16 1016.20 1016.48 1016.80 1017.00 1017.16 1017.28 1017.36 1017.48 1017.52 1017.60 1017.68 1017.72 1017.80 1017.88 1017.96 1018.08 1018.16 1018.24 1018.32 1018.36 1018.36 1018.36 1018.40 1018.48 1018.52 1018.60 1018.64 1018.64 1018.64 1018.64 1018.68 1018.76 1018.80 1018.92 1018.96 1019.00 1019.00 1019.04 1019.08 1019.08 1019.08 1019.12 1019.16 1019.20 1019.20
1013.96 1014.08 1014.20 1014.36 1014.44 1014.52 1014.64 1014.76 1014.88 1014.96 1015.00 1015.04 1015.08 1015.08 1015.20 1015.28 1015.32 1015.32 1015.36 1015.44 1015.68 1015.96 1016.24 1016.36 1016.48 1016.64 1016.88 1017.08 1017.24 1017.36 1017.48 1017.52 1017.60 1017.64 1017.76 1017.84 1017.92 1018.00 1018.08 1018.20 1018.24 1018.32 1018.36 1018.36 1018.36 1018.40 1018.48 1018.56 1018.64 1018.64 1018.68 1018.72 1018.76 1018.76 1018.76 1018.76 1018.84 1018.92 1019.04 1019.08 1019.08 1019.08 1019.08 1019.12 1019.16 1019.20 1019.24 1019.28 1019.32
1014.04 1014.16 1014.32 1014.40 1014.48 1014.56 1014.68 1014.80 1014.92 1015.08 1015.12 1015.16 1015.24 1015.24 1015.32 1015.44 1015.44 1015.48 1015.52 1015.68 1015.92 1016.16 1016.40 1016.64 1016.68 1016.80 1016.96 1017.12 1017.28 1017.40 1017.52 1017.56 1017.64 1017.72 1017.80 1017.92 1018.04 1018.12 1018.20 1018.32 1018.36 1018.36 1018.36 1018.44 1018.44 1018.48 1018.56 1018.64 1018.68 1018.72 1018.76 1018.76 1018.80 1018.84 1018.84 1018.84 1018.88 1018.96 1019.04 1019.08 1019.12 1019.12 1019.16 1019.20 1019.24 1019.24 1019.32 1019.36 1019.44
1014.16 1014.28 1014.36 1014.44 1014.52 1014.64 1014.76 1014.92 1015.04 1015.12 1015.24 1015.36 1015.36 1015.40 1015.48 1015.64 1015.64 1015.68 1015.80 1015.96 1016.16 1016.36 1016.56 1016.76 1016.88 1017.00 1017.08 1017.20 1017.28 1017.36 1017.48 1017.56 1017.64 1017.80 1017.92 1018.04 1018.16 1018.24 1018.32 1018.36 1018.40 1018.44 1018.44 1018.52 1018.52 1018.60 1018.64 1018.68 1018.76 1018.80 1018.80 1018.80 1018.88 1018.92 1018.92 1018.92 1018.92 1019.00 1019.08 1019.08 1019.08 1019.12 1019.16 1019.24 1019.24 1019.28 1019.32 1019.36 1019.44
1014.28 1014.36 1014.48 1014.52 1014.64 1014.76 1014.84 1015.00 1015.12 1015.24 1015.36 1015.48 1015.52 1015.56 1015.64 1015.80 1015.88 1015.92 1016.00 1016.16 1016.36 1016.52 1016.68 1016.80 1016.96 1017.08 1017.16 1017.24 1017.28 1017.36 1017.52 1017.64 1017.76 1017.92 1018.04 1018.16 1018.24 1018.32 1018.36 1018.40 1018.48 1018.52 1018.52 1018.56 1018.64 1018.68 1018.76 1018.80 1018.80 1018.84 1018.84 1018.88 1018.92 1018.96 1019.00 1019.04 1019.08 1019.08 1019.08 1019.12 1019.12 1019.16 1019.20 1019.24 1019.28 1019.32 1019.36 1019.36 1019.40
1014.36 1014.48 1014.52 1014.64 1014.72 1014.84 1014.96 1015.08 1015.24 1015.36 1015.48 1015.60 1015.64 1015.72 1015.80 1015.92 1016.00 1016.08 1016.16 1016.28 1016.44 1016.60 1016.76 1016.84 1016.92 1017.04 1017.16 1017.24 1017.36 1017.44 1017.56 1017.72 1017.88 1018.00 1018.12 1018.24 1018.32 1018.40 1018.44 1018.48 1018.52 1018.52 1018.60 1018.68 1018.76 1018.80 1018.88 1018.92 1018.88 1018.92 1018.92 1018.96 1019.00 1019.04 1019.08 1019.08 1019.16 1019.16 1019.16 1019.20 1019.24 1019.24 1019.24 1019.24 1019.32 1019.36 1019.40 1019.40 1019.44
1014.48 1014.56 1014.64 1014.72 1014.80 1014.92 1015.08 1015.20 1015.32 1015.44 1015.60 1015.68 1015.80 1015.88 1015.92 1016.00 1016.12 1016.20 1016.32 1016.36 1016.48 1016.60 1016.76 1016.88 1016.92 1017.04 1017.20 1017.32 1017.44 1017.56 1017.68 1017.80 1018.00 1018.12 1018.20 1018.32 1018.36 1018.44 1018.52 1018.52 1018.56 1018.64 1018.72 1018.80 1018.84 1018.92 1019.00 1019.00 1019.04 1019.04 1019.04 1019.08 1019.08 1019.12 1019.16 1019.16 1019.24 1019.24 1019.28 1019.28 1019.32 1019.32 1019.32 1019.36 1019.36 1019.40 1019.44 1019.44 1019.48
1014.60 1014.64 1014.72 1014.84 1014.92 1015.00 1015.12 1015.24 1015.40 1015.52 1015.64 1015.72 1015.84 1015.92 1016.04 1016.08 1016.20 1016.32 1016.40 1016.48 1016.52 1016.64 1016.80 1016.92 1017.04 1017.16 1017.32 1017.44 1017.60 1017.68 1017.80 1017.92 1018.08 1018.20 1018.32 1018.36 1018.48 1018.52 1018.60 1018.64 1018.72 1018.80 1018.88 1018.92 1018.96 1019.04 1019.08 1019.12 1019.16 1019.16 1019.12 1019.12 1019.20 1019.24 1019.28 1019.28 1019.32 1019.32 1019.36 1019.36 1019.40 1019.40 1019.40 1019.44 1019.44 1019.48 1019.48 1019.48 1019.52
1014.64 1014.72 1014.80 1014.88 1014.92 1015.04 1015.16 1015.32 1015.44 1015.56 1015.64 1015.80 1015.92 1016.04 1016.12 1016.20 1016.28 1016.36 1016.52 1016.60 1016.68 1016.76 1016.84 1017.00 1017.20 1017.36 1017.52 1017.60 1017.72 1017.84 1017.92 1018.04 1018.12 1018.24 1018.36 1018.44 1018.52 1018.64 1018.68 1018.76 1018.84 1018.92 1019.00 1019.08 1019.08 1019.12 1019.16 1019.24 1019.24 1019.24 1019.24 1019.24 1019.24 1019.32 1019.36 1019.40 1019.40 1019.36 1019.40 1019.48 1019.48 1019.48 1019.52 1019.52 1019.52 1019.52 1019.52 1019.52 1019.56
1014.72 1014.80 1014.88 1014.92 1015.04 1015.12 1015.24 1015.36 1015.48 1015.60 1015.72 1015.88 1016.00 1016.08 1016.20 1016.32 1016.40 1016.52 1016.60 1016.72 1016.84 1016.92 1017.04 1017.16 1017.32 1017.52 1017.64 1017.72 1017.84 1017.96 1018.08 1018.20 1018.28 1018.36 1018.44 1018.52 1018.56 1018.64 1018.76 1018.80 1018.92 1018.96 1019.04 1019.08 1019.16 1019.20 1019.24 1019.24 1019.28 1019.28 1019.28 1019.28 1019.32 1019.36 1019.44 1019.48 1019.52 1019.52 1019.52 1019.52 1019.56 1019.56 1019.56 1019.56 1019.60 1019.60 1019.60 1019.60 1019.64
1014.80 1014.88 1014.92 1015.04 1015.12 1015.24 1015.32 1015.44 1015.52 1015.64 1015.80 1015.96 1016.08 1016.20 1016.32 1016.40 1016.52 1016.64 1016.76 1016.88 1017.00 1017.08 1017.24 1017.36 1017.52 1017.64 1017.72 1017.84 1017.96 1018.08 1018.20 1018.36 1018.44 1018.48 1018.52 1018.56 1018.64 1018.76 1018.80 1018.88 1018.92 1019.04 1019.08 1019.12 1019.20 1019.24 1019.28 1019.28 1019.32 1019.36 1019.36 1019.36 1019.36 1019.36 1019.44 1019.52 1019.52 1019.56 1019.56 1019.60 1019.64 1019.64 1019.64 1019.64 1019.64 1019.64 1019.64 1019.64 1019.72
1014.92 1015.00 1015.08 1015.16 1015.24 1015.32 1015.44 1015.56 1015.68 1015.80 1015.92 1016.08 1016.20 1016.32 1016.44 1016.56 1016.64 1016.80 1016.92 1017.04 1017.12 1017.24 1017.36 1017.52 1017.64 1017.76 1017.84 1017.92 1018.04 1018.16 1018.28 1018.40 1018.52 1018.60 1018.60 1018.64 1018.72 1018.80 1018.92 1018.96 1019.00 1019.08 1019.08 1019.16 1019.20 1019.24 1019.28 1019.36 1019.36 1019.36 1019.36 1019.36 1019.36 1019.40 1019.48 1019.52 1019.56 1019.60 1019.64 1019.64 1019.68 1019.68 1019.68 1019.72 1019.72 1019.72 1019.72 1019.72 1019.76
1014.96 1015.08 1015.16 1015.24 1015.36 1015.48 1015.56 1015.68 1015.80 1015.92 1016.08 1016.20 1016.36 1016.44 1016.56 1016.72 1016.80 1016.92 1017.08 1017.16 1017.24 1017.36 1017.52 1017.68 1017.80 1017.92 1018.04 1018.08 1018.16 1018.20 1018.36 1018.48 1018.60 1018.64 1018.68 1018.72 1018.80 1018.84 1018.92 1018.96 1019.04 1019.08 1019.08 1019.12 1019.16 1019.20 1019.24 1019.32 1019.36 1019.36 1019.36 1019.36 1019.40 1019.44 1019.52 1019.52 1019.60 1019.64 1019.64 1019.68 1019.72 1019.76 1019.76 1019.76 1019.80 1019.80 1019.80 1019.80 1019.80
1015.04 1015.12 1015.24 1015.36 1015.48 1015.60 1015.68 1015.80 1015.92 1016.04 1016.20 1016.36 1016.48 1016.56 1016.68 1016.84 1016.96 1017.08 1017.20 1017.32 1017.44 1017.52 1017.64 1017.76 1017.92 1018.04 1018.16 1018.20 1018.28 1018.36 1018.40 1018.52 1018.60 1018.68 1018.80 1018.80 1018.84 1018.88 1018.92 1018.96 1019.04 1019.08 1019.08 1019.08 1019.08 1019.08 1019.16 1019.24 1019.28 1019.32 1019.36 1019.40 1019.40 1019.48 1019.52 1019.52 1019.60 1019.64 1019.64 1019.68 1019.72 1019.76 1019.80 1019.80 1019.88 1019.88 1019.88 1019.84 1019.84
1015.12 1015.24 1015.36 1015.44 1015.56 1015.68 1015.80 1015.88 1016.00 1016.16 1016.32 1016.48 1016.64 1016.72 1016.88 1017.00 1017.08 1017.20 1017.32 1017.44 1017.52 1017.64 1017.68 1017.80 1017.92 1018.04 1018.12 1018.28 1018.36 1018.44 1018.52 1018.52 1018.60 1018.64 1018.76 1018.84 1018.88 1018.92 1018.96 1019.04 1019.04 1019.08 1019.08 1019.08 1019.04 1019.04 1019.04 1019.08 1019.16 1019.28 1019.36 1019.40 1019.40 1019.48 1019.52 1019.60 1019.60 1019.64 1019.68 1019.68 1019.68 1019.76 1019.80 1019.88 1019.92 1019.96 1019.96 1019.96 1019.92
1015.24 1015.36 1015.44 1015.52 1015.64 1015.80 1015.92 1016.00 1016.16 1016.32 1016.48 1016.60 1016.76 1016.88 1017.00 1017.08 1017.20 1017.28 1017.40 1017.52 1017.64 1017.72 1017.80 1017.84 1017.92 1018.04 1018.12 1018.24 1018.36 1018.52 1018.56 1018.64 1018.64 1018.68 1018.76 1018.84 1018.92 1018.92 1018.96 1019.04 1019.04 1019.08 1019.08 1019.08 1019.00 1019.00 1019.00 1019.00 1019.04 1019.12 1019.28 1019.40 1019.44 1019.48 1019.52 1019.60 1019.60 1019.64 1019.68 1019.72 1019.76 1019.80 1019.84 1019.92 1020.00 1020.08 1020.08 1020.08 1020.04
1015.32 1015.44 1015.56 1015.64 1015.80 1015.92 1016.04 1016.16 1016.32 1016.48 1016.60 1016.72 1016.84 1016.96 1017.08 1017.24 1017.32 1017.40 1017.52 1017.64 1017.72 1017.84 1017.92 1018.00 1018.08 1018.08 1018.20 1018.32 1018.40 1018.52 1018.56 1018.64 1018.68 1018.76 1018.80 1018.88 1018.92 1018.96 1019.00 1019.04 1019.04 1019.04 1019.04 1019.00 1018.96 1018.96 1018.92 1018.92 1018.92 1019.04 1019.16 1019.32 1019.36 1019.44 1019.48 1019.52 1019.60 1019.64 1019.72 1019.80 1019.80 1019.88 1019.92 1019.96 1020.04 1020.08 1020.12 1020.20 1020.16
1015.36 1015.52 1015.64 1015.80 1015.92 1016.04 1016.16 1016.32 1016.44 1016.56 1016.68 1016.80 1016.92 1017.04 1017.16 1017.32 1017.40 1017.52 1017.60 1017.72 1017.80 1017.92 1018.04 1018.12 1018.16 1018.20 1018.32 1018.44 1018.52 1018.56 1018.64 1018.72 1018.76 1018.80 1018.84 1018.92 1018.92 1018.96 1019.00 1019.04 1019.04 1019.00 1018.96 1018.92 1018.92 1018.92 1018.92 1018.92 1018.92 1018.92 1018.96 1019.16 1019.32 1019.40 1019.44 1019.52 1019.60 1019.68 1019.76 1019.80 1019.84 1019.92 1019.96 1020.08 1020.12 1020.16 1020.20 1020.20 1020.20
1015.40 1015.56 1015.68 1015.84 1015.96 1016.12 1016.28 1016.40 1016.52 1016.64 1016.80 1016.92 1017.04 1017.12 1017.24 1017.36 1017.44 1017.56 1017.68 1017.80 1017.92 1017.96 1018.08 1018.16 1018.24 1018.36 1018.44 1018.52 1018.56 1018.64 1018.72 1018.80 1018.80 1018.88 1018.92 1019.00 1019.00 1019.00 1019.00 1019.00 1019.04 1019.00 1018.96 1018.92 1018.92 1018.92 1018.88 1018.88 1018.88 1018.84 1018.88 1019.04 1019.24 1019.36 1019.48 1019.56 1019.64 1019.68 1019.76 1019.84 1019.92 1019.96 1020.00 1020.08 1020.16 1020.20 1020.24 1020.28 1020.32
1015.44 1015.60 1015.72 1015.92 1016.08 1016.20 1016.36 1016.48 1016.60 1016.72 1016.84 1016.96 1017.08 1017.20 1017.32 1017.44 1017.56 1017.64 1017.76 1017.84 1017.92 1018.00 1018.08 1018.20 1018.32 1018.40 1018.48 1018.52 1018.64 1018.72 1018.80 1018.84 1018.88 1018.92 1018.96 1019.00 1019.00 1019.00 1019.04 1019.04 1019.04 1019.00 1018.96 1018.96 1018.92 1018.92 1018.88 1018.88 1018.88 1018.84 1018.84 1018.92 1019.24 1019.40 1019.52 1019.60 1019.64 1019.72 1019.80 1019.88 1019.92 1019.96 1020.08 1020.16 1020.20 1020.28 1020.36 1020.36 1020.40
1015.48 1015.64 1015.80 1015.96 1016.12 1016.28 1016.40 1016.56 1016.68 1016.80 1016.92 1017.04 1017.12 1017.24 1017.36 1017.52 1017.60 1017.68 1017.80 1017.84 1017.92 1018.04 1018.16 1018.28 1018.36 1018.44 1018.52 1018.60 1018.68 1018.76 1018.84 1018.92 1018.92 1018.92 1018.96 1019.04 1019.04 1019.04 1019.08 1019.08 1019.04 1019.00 1019.00 1018.96 1018.92 1018.92 1018.88 1018.84 1018.80 1018.80 1018.80 1018.92 1019.20 1019.44 1019.56 1019.64 1019.72 1019.80 1019.80 1019.88 1019.92 1020.00 1020.08 1020.20 1020.28 1020.36 1020.40 1020.44 1020.48
1015.52 1015.64 1015.80 1016.00 1016.16 1016.32 1016.48 1016.64 1016.76 1016.84 1016.92 1017.08 1017.16 1017.28 1017.40 1017.52 1017.64 1017.76 1017.84 1017.92 1017.96 1018.08 1018.20 1018.32 1018.40 1018.52 1018.60 1018.72 1018.76 1018.80 1018.84 1018.92 1018.92 1018.92 1018.96 1019.00 1019.04 1019.08 1019.08 1019.08 1019.04 1019.04 1019.00 1018.92 1018.92 1018.88 1018.84 1018.80 1018.80 1018.76 1018.80 1018.92 1019.24 1019.48 1019.60 1019.68 1019.76 1019.80 1019.92 1019.96 1020.04 1020.08 1020.16 1020.24 1020.36 1020.40 1020.48 1020.52 1020.56
1015.52 1015.68 1015.84 1016.04 1016.20 1016.40 1016.56 1016.68 1016.80 1016.88 1017.00 1017.08 1017.24 1017.32 1017.44 1017.56 1017.68 1017.80 1017.88 1017.92 1018.04 1018.08 1018.20 1018.32 1018.40 1018.52 1018.60 1018.68 1018.76 1018.80 1018.84 1018.92 1018.92 1019.00 1019.00 1019.04 1019.08 1019.08 1019.08 1019.08 1019.04 1019.00 1018.96 1018.92 1018.92 1018.88 1018.80 1018.80 1018.76 1018.76 1018.84 1019.04 1019.32 1019.52 1019.64 1019.76 1019.80 1019.92 1019.96 1020.08 1020.16 1020.20 1020.28 1020.32 1020.40 1020.48 1020.52 1020.60 1020.64
1015.52 1015.72 1015.92 1016.08 1016.24 1016.44 1016.60 1016.72 1016.84 1016.92 1017.08 1017.20 1017.28 1017.36 1017.48 1017.60 1017.68 1017.80 1017.84 1017.88 1017.96 1018.08 1018.20 1018.32 1018.40 1018.52 1018.60 1018.68 1018.72 1018.80 1018.84 1018.92 1018.96 1019.00 1019.04 1019.08 1019.08 1019.08 1019.08 1019.08 1019.00 1018.96 1018.92 1018.92 1018.88 1018.80 1018.80 1018.72 1018.68 1018.76 1018.92 1019.20 1019.40 1019.60 1019.68 1019.80 1019.88 1019.96 1020.08 1020.16 1020.24 1020.36 1020.40 1020.48 1020.52 1020.60 1020.64 1020.68 1020.76
1015.52 1015.68 1015.88 1016.08 1016.28 1016.48 1016.64 1016.80 1016.88 1017.00 1017.08 1017.20 1017.32 1017.40 1017.52 1017.60 1017.64 1017.76 1017.80 1017.88 1017.92 1018.08 1018.20 1018.36 1018.40 1018.52 1018.60 1018.72 1018.76 1018.80 1018.84 1018.92 1018.96 1018.96 1019.00 1019.00 1019.08 1019.08 1019.08 1019.08 1019.00 1018.96 1018.92 1018.88 1018.80 1018.76 1018.68 1018.64 1018.68 1018.80 1019.04 1019.32 1019.52 1019.64 1019.80 1019.88 1019.96 1020.08 1020.16 1020.24 1020.36 1020.44 1020.52 1020.60 1020.64 1020.68 1020.76 1020.80 1020.80
1015.48 1015.64 1015.80 1016.08 1016.28 1016.48 1016.64 1016.76 1016.88 1017.00 1017.08 1017.20 1017.32 1017.44 1017.52 1017.64 1017.72 1017.80 1017.84 1017.88 1017.96 1018.08 1018.20 1018.36 1018.44 1018.52 1018.60 1018.64 1018.72 1018.76 1018.80 1018.88 1018.92 1018.92 1018.96 1018.96 1019.00 1019.04 1019.08 1019.08 1019.00 1018.96 1018.92 1018.88 1018.80 1018.72 1018.64 1018.60 1018.72 1018.92 1019.16 1019.40 1019.60 1019.76 1019.88 1019.96 1020.08 1020.20 1020.24 1020.36 1020.48 1020.52 1020.60 1020.68 1020.72 1020.76 1020.80 1020.84 1020.84
1015.44 1015.60 1015.80 1016.00 1016.20 1016.40 1016.56 1016.72 1016.84 1016.92 1017.08 1017.20 1017.36 1017.40 1017.52 1017.64 1017.72 1017.80 1017.88 1017.88 1017.96 1018.08 1018.24 1018.32 1018.40 1018.52 1018.56 1018.64 1018.68 1018.76 1018.80 1018.84 1018.88 1018.92 1018.96 1018.92 1018.96 1019.00 1019.08 1019.04 1019.00 1018.92 1018.92 1018.84 1018.80 1018.64 1018.60 1018.64 1018.80 1019.04 1019.24 1019.48 1019.64 1019.80 1019.92 1020.04 1020.20 1020.28 1020.36 1020.48 1020.56 1020.64 1020.68 1020.76 1020.80 1020.80 1020.88 1020.88 1020.84
1015.36 1015.52 1015.72 1015.88 1016.08 1016.28 1016.48 1016.64 1016.80 1016.92 1017.04 1017.16 1017.32 1017.44 1017.52 1017.64 1017.72 1017.80 1017.80 1017.88 1017.92 1018.08 1018.20 1018.32 1018.36 1018.48 1018.52 1018.60 1018.64 1018.72 1018.80 1018.80 1018.80 1018.84 1018.92 1018.92 1018.92 1018.92 1019.00 1019.00 1018.96 1018.92 1018.88 1018.80 1018.72 1018.64 1018.64 1018.80 1018.92 1019.12 1019.36 1019.52 1019.68 1019.84 1019.96 1020.08 1020.24 1020.36 1020.48 1020.56 1020.64 1020.72 1020.80 1020.84 1020.88 1020.92 1020.92 1020.92 1020.80
1015.36 1015.52 1015.64 1015.80 1015.96 1016.16 1016.36 1016.52 1016.68 1016.84 1016.96 1017.12 1017.28 1017.44 1017.52 1017.64 1017.68 1017.76 1017.84 1017.92 1017.96 1018.08 1018.20 1018.28 1018.36 1018.44 1018.52 1018.52 1018.60 1018.68 1018.80 1018.80 1018.80 1018.80 1018.84 1018.88 1018.88 1018.88 1018.92 1018.96 1018.96 1018.92 1018.88 1018.80 1018.72 1018.68 1018.76 1018.88 1019.00 1019.20 1019.40 1019.64 1019.76 1019.88 1020.00 1020.12 1020.32 1020.44 1020.56 1020.64 1020.72 1020.80 1020.88 1020.92 1020.96 1020.96 1021.00 1021.00 1020.88
1015.28 1015.48 1015.64 1015.76 1015.92 1016.08 1016.24 1016.44 1016.60 1016.80 1016.92 1017.08 1017.24 1017.36 1017.52 1017.60 1017.68 1017.80 1017.88 1017.92 1018.00 1018.08 1018.16 1018.24 1018.36 1018.44 1018.48 1018.48 1018.56 1018.64 1018.76 1018.80 1018.80 1018.80 1018.80 1018.80 1018.84 1018.84 1018.88 1018.92 1018.96 1018.92 1018.88 1018.80 1018.76 1018.76 1018.80 1018.92 1019.08 1019.24 1019.48 1019.68 1019.84 1019.92 1020.00 1020.16 1020.32 1020.52 1020.64 1020.72 1020.80 1020.84 1020.92 1021.00 1021.04 1021.08 1021.08 1021.08 1021.04
Wind_Speed
1 4 6 7 7 7 7 7 6 6 6 8 10 10 8 6 6 5 4 2 2 2 2 2 3 3 4 4 6 6 7 7 7 7 7 7 6 5 5 4 4 4 4 3 3 3 3 3 3 2 2 2 2 2 1 1 1 1 1 1 1 2 2 4 5 6 6 7 5
4 6 7 8 8 8 8 8 8 7 7 7 8 8 6 4 4 3 2 1 1 1 2 2 3 4 5 5 6 6 7 7 7 7 7 6 5 5 4 4 4 4 4 4 3 3 3 3 3 2 2 2 2 2 1 1 1 2 2 1 1 1 2 3 4 5 5 6 5
5 5 6 7 8 9 10 11 11 11 10 8 6 5 5 4 3 2 1 1 1 1 1 2 3 4 5 6 6 6 6 6 7 7 6 5 5 5 5 5 4 4 4 4 3 3 2 2 2 2 2 2 2 2 1 1 1 2 2 1 1 1 1 2 3 3 3 4 4
7 6 6 7 12 15 15 12 12 12 12 9 6 5 5 4 3 2 1 1 1 1 1 2 3 3 4 6 6 6 6 6 7 7 6 5 5 5 5 5 4 3 3 3 3 3 3 2 2 2 2 2 2 2 2 1 2 2 1 1 1 1 1 1 1 1 1 2 3
9 8 10 13 17 18 16 12 11 11 10 8 6 5 5 4 3 2 2 3 3 3 3 3 3 4 5 6 7 7 7 7 7 6 6 5 5 5 5 4 4 3 3 3 3 3 3 3 2 2 2 2 1 1 1 1 2 2 1 1 1 1 1 1 1 0 0 1 1
9 11 13 14 14 13 10 8 8 8 7 6 6 6 5 4 3 3 4 5 5 5 5 5 6 6 7 7 7 6 6 6 6 6 6 6 6 5 5 4 4 4 4 4 4 4 4 3 2 2 2 2 1 1 0 1 2 2 2 1 1 1 1 1 1 1 0 2 2
7 9 11 11 10 9 7 4 5 5 5 5 6 6 5 4 4 5 6 6 6 6 6 6 6 7 7 7 6 5 5 5 5 6 7 6 5 4 4 4 4 5 5 4 4 4 4 3 2 2 2 2 1 1 1 0 2 2 2 1 0 1 1 1 1 1 0 2 2
5 7 8 8 8 8 7 6 5 5 5 5 6 6 7 7 8 8 7 6 5 5 5 4 6 7 7 6 6 6 6 6 6 6 6 5 4 4 4 5 5 5 5 4 4 4 3 3 2 2 2 1 1 1 1 1 1 2 2 2 1 1 1 1 1 0 1 2 2
5 5 6 6 6 7 7 6 6 6 5 5 6 8 9 10 10 9 8 6 5 5 5 4 5 6 6 6 6 6 6 6 7 5 4 3 4 4 4 5 5 5 4 3 3 3 3 2 2 2 2 2 1 2 2 2 2 2 2 2 1 1 1 1 1 0 1 2 2
6 6 6 6 6 6 7 6 6 6 7 7 8 8 9 9 9 8 7 6 5 5 4 4 5 5 6 6 6 6 6 6 6 5 4 3 4 4 4 4 4 4 3 2 2 2 3 2 2 2 2 2 2 2 2 2 3 3 2 1 1 1 1 2 1 1 1 2 3
7 7 6 6 6 7 7 6 6 6 7 7 7 7 7 7 7 7 6 6 6 5 5 4 5 6 6 5 5 5 5 5 5 4 4 4 4 4 4 4 4 3 3 2 2 2 2 2 3 3 2 2 2 2 3 3 3 3 2 1 2 2 1 1 1 1 1 2 3
7 7 6 6 7 7 7 6 5 5 6 6 6 6 5 5 6 6 6 6 6 6 5 5 7 7 7 5 5 4 4 4 4 4 4 4 4 4 4 4 3 3 3 2 2 2 2 2 3 3 2 2 2 2 3 3 3 3 2 2 2 2 2 1 1 1 1 2 2
7 7 6 6 7 7 7 6 5 5 5 5 5 5 5 5 5 6 6 7 8 7 5 5 6 7 7 6 5 5 4 4 5 5 5 4 4 4 4 4 3 3 3 2 2 2 3 2 2 3 3 2 2 2 2 3 3 3 3 2 2 2 2 2 1 1 1 2 2
7 7 7 7 7 7 7 6 5 5 5 5 5 5 6 5 5 6 6 8 8 7 6 5 5 5 6 6 6 5 5 5 5 5 5 5 4 4 4 3 3 3 3 2 2 3 3 3 2 3 3 3 2 2 2 3 3 3 3 3 3 3 2 2 2 2 2 3 3
7 7 7 7 6 6 6 6 5 5 5 5 5 5 5 5 5 6 7 8 8 7 6 6 5 5 5 6 6 6 6 6 6 6 5 5 4 4 4 4 3 3 3 3 2 2 3 3 3 3 3 3 3 2 2 2 3 3 3 3 3 3 3 3 3 3 3 4 4
7 6 6 6 6 6 6 6 5 5 5 5 5 5 5 5 5 6 7 7 7 6 6 6 5 5 4 5 5 5 5 6 6 6 6 5 4 4 4 4 4 4 3 3 3 2 2 2 2 3 3 3 3 3 2 2 2 2 2 3 3 3 3 3 3 3 4 4 4
7 6 6 6 7 7 6 6 5 5 5 6 5 5 5 5 5 5 6 7 6 6 6 6 5 4 4 4 4 4 5 5 5 5 5 5 5 4 4 4 4 4 4 4 3 2 2 1 2 2 3 3 3 3 2 2 2 2 2 2 2 2 2 3 3 3 3 4 4
7 6 6 6 7 7 7 7 6 6 6 6 6 5 5 5 5 5 6 6 6 6 7 6 5 4 4 4 4 4 4 5 5 5 4 4 4 4 4 4 3 3 3 3 3 3 2 1 1 2 2 3 2 2 2 2 2 2 2 2 2 2 2 2 2 2 3 3 3
7 6 7 7 7 8 8 8 7 7 7 6 6 6 5 5 6 6 5 5 5 6 7 6 5 5 4 5 4 4 4 4 5 5 4 4 4 4 3 3 3 3 3 3 3 2 2 1 1 1 2 3 2 2 1 2 2 2 2 2 2 1 1 1 2 2 2 2 2
7 7 7 7 7 8 8 8 7 7 6 6 6 6 6 5 6 6 6 5 5 5 6 7 6 5 5 5 5 4 4 3 5 5 5 4 4 4 3 3 3 3 3 3 2 2 2 1 1 1 2 3 3 2 2 1 1 2 2 2 1 1 1 1 1 1 2 2 2
6 6 6 7 7 7 7 7 7 6 6 6 6 6 6 5 5 5 5 5 5 5 6 7 7 6 6 6 6 5 4 3 4 5 5 5 4 4 4 4 4 3 3 3 2 2 2 1 1 1 2 3 3 3 2 2 2 2 2 1 1 1 1 1 1 1 2 2 2
5 5 5 6 6 7 7 6 6 6 6 6 6 6 5 5 5 5 4 4 5 5 6 6 6 6 6 6 6 5 4 3 4 4 4 4 4 4 3 4 4 4 3 3 2 2 1 1 1 1 2 2 3 3 3 3 2 2 2 2 1 1 1 1 1 1 2 2 2
5 4 4 5 6 6 7 6 6 6 6 6 6 6 5 5 5 4 4 4 5 5 5 5 5 5 6 6 6 6 5 4 4 4 4 4 4 3 3 3 3 4 3 3 2 2 2 1 2 2 2 2 3 3 3 3 3 3 3 3 2 2 1 1 1 2 2 2 2
5 5 5 5 5 6 6 6 6 6 6 6 6 6 6 5 5 5 5 5 6 6 5 5 4 5 5 5 6 6 6 5 5 4 4 3 3 3 3 2 3 3 3 3 3 3 3 2 2 2 3 3 3 3 3 3 3 3 4 4 3 2 2 2 2 2 2 2 2
6 6 6 5 6 6 6 6 7 6 6 6 6 6 6 6 6 6 6 6 6 6 6 6 5 5 5 5 5 5 5 5 5 5 4 3 3 3 2 2 2 2 2 3 4 5 6 5 4 3 3 3 3 3 3 3 3 3 4 4 4 3 3 2 2 2 2 2 1
6 6 6 6 6 6 6 7 7 6 6 6 6 6 6 5 5 6 6 6 6 6 6 6 6 5 5 4 4 4 4 4 5 5 4 4 3 3 3 2 2 2 2 3 6 7 8 9 8 6 4 3 3 3 3 3 3 3 4 4 4 4 3 3 2 2 1 2 2
6 6 6 6 6 7 6 6 6 6 6 6 6 6 5 5 5 6 6 6 5 5 5 5 5 5 5 5 5 4 4 3 4 4 4 4 4 3 3 3 2 2 3 5 7 9 10 10 10 9 7 4 4 4 4 3 4 3 3 3 3 3 4 4 3 2 2 1 2
6 6 6 6 7 6 6 6 6 6 6 6 6 5 5 5 6 6 6 5 5 4 4 3 3 3 4 4 4 4 4 4 3 3 3 4 4 4 4 3 3 4 5 7 9 10 11 11 11 11 9 6 4 4 4 4 4 3 3 3 2 3 3 4 3 3 2 2 2
7 7 7 7 7 7 6 6 7 7 6 6 5 5 5 5 6 6 6 5 5 4 3 2 2 2 3 3 3 3 3 3 3 3 3 3 3 3 4 4 4 5 7 9 10 11 11 11 12 11 11 9 5 4 3 3 3 3 3 2 3 3 3 3 3 3 3 3 2
7 7 8 8 7 7 7 7 7 6 6 5 5 6 6 6 6 6 5 5 4 4 3 3 2 3 3 3 3 3 3 2 2 2 2 3 3 3 4 4 4 5 7 9 10 11 11 11 11 11 11 10 6 4 3 3 3 3 3 3 3 4 4 4 3 3 3 3 3
7 8 8 8 8 7 7 6 6 6 6 5 6 6 6 6 6 5 5 4 3 3 3 3 3 3 3 3 3 3 3 2 2 2 2 3 4 4 4 4 4 5 7 9 10 11 11 11 12 11 11 10 7 4 3 3 3 3 3 3 4 4 4 4 4 3 3 4 4
8 8 8 8 8 7 7 6 6 6 6 6 6 6 6 6 5 4 3 3 3 3 3 3 3 3 3 3 3 3 3 3 3 3 3 3 4 4 4 4 4 5 7 9 10 11 12 12 12 12 10 10 6 5 3 3 3 3 3 3 4 4 4 4 4 4 4 4 4
8 8 8 8 8 7 6 6 6 6 6 6 6 6 6 5 4 3 3 3 3 3 3 3 3 4 3 3 3 3 3 3 3 4 4 4 4 4 4 4 4 5 7 9 10 11 12 12 13 11 9 9 6 5 4 3 3 3 3 3 4 4 4 4 4 4 4 3 3
8 8 8 8 8 7 6 6 6 6 6 6 6 6 5 5 4 4 3 3 3 3 3 3 3 4 4 4 3 3 3 3 3 3 3 3 3 4 4 4 3 5 7 9 10 11 12 13 12 9 8 9 6 5 4 4 3 3 3 3 3 3 3 3 3 3 3 3 3
8 8 8 8 7 7 7 6 6 6 7 7 6 6 5 5 5 4 4 4 3 3 2 2 2 2 2 2 2 3 3 3 3 3 3 3 3 4 4 4 4 6 8 10 10 11 12 12 10 7 8 8 6 4 4 4 4 4 4 4 3 3 2 2 2 2 2 3 3
8 9 8 8 7 7 7 7 7 7 7 7 6 5 5 4 4 4 4 4 4 3 3 2 2 2 2 2 2 2 3 3 3 3 3 3 4 4 4 4 4 6 8 9 10 12 12 11 7 8 9 7 5 4 4 4 3 4 4 4 3 2 2 2 2 2 2 2 3
8 9 9 8 8 8 7 7 7 7 7 7 6 5 5 4 3 3 4 4 4 4 3 3 3 3 3 3 3 3 3 3 3 4 4 5 4 4 4 4 4 5 7 9 10 11 10 8 8 10 9 6 4 4 3 3 3 3 3 3 3 2 2 1 2 2 2 2 3
8 9 9 9 9 8 8 7 8 8 7 6 5 4 4 4 3 4 4 5 4 4 4 4 4 4 4 4 4 4 3 3 4 5 5 5 5 5 5 5 4 4 6 8 10 10 7 8 11 11 9 6 5 4 4 3 3 3 3 3 2 2 2 1 1 2 2 3 5
8 9 9 9 9 9 8 8 8 7 7 6 4 4 3 3 3 4 4 4 4 4 4 4 4 4 4 4 4 4 4 4 4 5 5 5 5 6 5 5 4 4 5 8 8 7 7 11 11 11 9 6 5 4 4 3 3 3 3 3 2 2 2 1 1 1 2 3 6
8 8 9 9 9 9 9 8 7 7 6 5 5 4 4 3 3 4 4 3 3 4 4 4 4 4 4 5 5 4 4 4 4 4 5 5 6 6 6 4 3 3 4 6 6 7 9 11 11 11 9 6 4 4 4 4 4 4 3 3 3 2 2 1 1 1 1 2 5
8 8 8 8 8 8 8 8 7 6 5 5 5 4 4 4 3 4 4 3 3 3 4 3 3 4 4 5 5 5 4 4 4 4 4 5 5 6 6 4 3 2 2 4 5 8 10 11 11 11 9 6 4 4 4 4 4 4 4 3 3 3 3 2 1 1 1 1 1
Wind_Direction
279 278 276 276 274 272 271 272 269 266 263 259 253 249 241 228 234 238 244 248 231 205 163 128 122 119 117 117 115 113 110 105 101 99 97 97 100 102 102 98 96 94 92 89 88 88 90 93 96 99 104 108 102 96 92 93 92 78 49 352 272 248 233 223 223 219 216 213 211
239 256 262 265 265 264 263 260 253 247 241 239 249 258 264 253 243 237 238 252 221 167 137 123 123 124 123 119 114 112 110 106 103 98 94 94 97 98 96 92 90 92 92 91 87 86 86 87 95 105 114 115 112 110 104 93 93 79 61 25 345 297 249 233 231 225 219 215 214
207 229 243 252 253 251 247 240 229 221 218 225 244 263 271 267 251 238 227 232 226 187 151 133 130 126 122 117 110 107 106 106 103 99 95 94 93 91 88 84 83 84 88 91 91 93 96 100 106 112 116 124 131 135 135 105 81 74 65 26 357 345 295 241 240 232 224 221 216
179 203 228 239 236 231 226 220 206 201 203 217 239 256 261 255 236 203 164 150 164 189 192 159 131 120 114 110 103 100 98 98 98 97 96 95 94 93 92 93 95 93 91 91 96 102 109 113 107 107 112 126 136 145 148 128 96 89 83 44 6 1 356 314 291 240 215 210 207
174 201 226 235 231 226 219 210 199 195 196 207 220 231 235 233 213 169 134 127 135 139 138 127 111 99 92 89 89 90 91 90 93 96 99 99 96 94 96 103 108 104 95 89 92 97 100 97 88 85 90 103 118 134 141 134 131 129 122 91 34 13 356 340 336 337 148 152 142
186 203 217 225 226 227 224 212 195 186 182 188 202 206 208 206 188 158 144 143 144 137 126 113 102 93 85 80 78 79 82 85 91 96 96 91 88 90 94 99 91 83 78 74 75 76 77 80 77 74 71 77 80 73 84 160 166 163 159 134 59 23 1 337 326 326 92 120 111
197 199 203 207 211 214 213 199 173 157 153 159 174 175 167 155 146 144 145 149 144 134 122 111 104 100 96 92 88 84 82 84 88 87 87 85 86 89 89 83 73 66 63 62 66 69 74 82 89 88 83 82 76 56 43 146 174 174 172 173 108 33 10 337 325 316 146 134 124
193 193 192 190 189 184 174 157 143 137 138 146 154 153 147 139 138 138 138 138 131 122 115 108 107 106 106 106 103 97 91 87 83 82 85 94 95 88 79 71 67 63 60 61 70 78 84 88 94 94 88 80 68 51 42 66 133 149 152 147 85 26 12 2 351 320 169 157 146
160 164 165 163 160 153 147 142 139 139 140 144 147 148 147 144 141 137 132 126 119 114 111 110 110 107 103 100 98 98 96 93 91 92 97 106 99 89 80 74 72 68 64 63 77 89 97 96 94 92 91 87 78 61 57 73 102 114 118 111 78 36 17 17 27 91 154 160 157
147 147 145 141 139 136 134 132 134 136 138 139 143 145 146 144 139 135 131 128 119 111 107 112 109 99 92 88 93 97 101 104 109 114 117 112 102 95 89 86 87 85 81 74 81 93 100 103 101 99 97 98 95 87 78 80 97 103 105 100 91 71 46 23 27 63 130 146 149
145 144 142 139 137 132 128 124 126 129 133 136 138 138 136 131 129 130 132 129 114 104 101 109 104 98 93 93 102 109 115 120 125 125 121 111 104 100 98 97 100 102 101 96 92 94 99 106 110 110 109 104 105 102 99 96 102 107 109 105 105 100 87 50 33 49 100 131 137
139 138 135 133 132 127 122 120 120 122 125 128 127 123 117 115 120 124 124 118 110 106 105 105 107 110 114 121 126 129 130 130 128 122 116 109 104 102 103 104 108 110 110 106 100 97 100 110 119 121 119 110 109 112 115 116 118 120 123 122 119 120 120 110 77 70 93 120 133
130 127 125 125 123 120 117 115 115 115 116 118 116 111 109 109 113 114 113 111 114 116 116 111 112 118 126 136 139 139 135 129 122 117 112 108 106 106 108 112 114 113 108 100 97 99 105 114 125 129 129 122 117 121 128 130 133 138 143 150 149 148 148 148 139 127 119 126 139
122 122 122 121 119 116 115 114 113 112 111 110 109 108 108 107 107 108 108 111 116 120 122 120 119 126 133 140 141 139 134 128 121 117 114 112 111 113 114 118 117 112 104 94 93 102 113 124 134 138 137 132 132 133 137 138 146 153 161 168 171 171 169 167 159 149 145 149 153
119 120 122 120 118 116 115 116 116 115 114 111 111 110 110 109 107 107 108 111 116 120 123 125 128 131 134 137 136 133 130 125 123 122 121 120 121 122 123 123 120 114 108 100 96 105 119 134 143 146 143 140 141 143 146 146 154 163 171 177 178 177 175 175 170 167 165 165 162
121 122 121 120 118 117 118 119 120 119 118 118 117 114 113 113 111 111 112 115 118 121 123 127 129 129 128 127 126 125 124 125 126 128 129 131 132 133 132 131 127 123 119 116 113 113 119 134 143 146 144 143 145 148 150 149 155 165 174 180 180 178 178 179 178 180 180 176 172
125 126 125 123 122 122 122 123 124 125 124 124 122 120 119 119 117 117 119 122 123 124 125 127 125 122 118 117 116 117 121 126 130 133 136 139 141 141 139 137 132 129 127 128 128 125 122 122 129 132 134 137 141 144 145 145 150 159 167 171 175 178 181 183 183 186 188 187 183
130 131 129 128 127 127 127 128 129 130 130 130 129 127 126 125 124 123 123 125 125 126 125 122 117 113 113 115 114 116 122 128 132 135 137 139 139 139 137 133 127 122 122 125 128 128 125 116 112 116 121 124 126 130 135 138 143 150 156 158 162 172 179 185 184 187 189 194 189
138 137 135 134 134 133 133 133 134 135 135 134 133 131 129 128 127 125 124 123 122 122 121 117 111 109 109 114 114 117 121 126 130 131 130 129 127 126 123 119 110 105 104 111 116 118 116 110 108 112 116 118 115 114 117 126 133 138 144 147 149 156 166 177 179 179 181 185 178
145 144 144 142 139 138 137 138 138 138 137 135 133 131 130 129 125 124 124 123 118 116 115 115 113 112 111 112 111 112 115 119 124 125 124 120 118 118 118 115 108 102 99 100 103 103 102 98 105 115 121 123 124 124 122 124 126 131 133 135 137 145 153 162 159 157 154 151 151
149 148 147 144 141 140 139 139 138 136 134 132 131 130 129 126 123 124 124 122 114 111 113 117 118 119 118 115 113 112 110 108 115 118 120 117 116 117 119 118 115 110 104 100 101 102 104 108 119 128 134 136 141 145 149 151 146 141 137 130 134 138 143 143 138 135 130 128 133
151 147 144 141 139 138 136 135 133 131 130 130 129 127 125 123 123 122 120 116 113 113 116 119 121 123 122 120 118 115 110 101 102 106 109 109 109 110 110 113 115 114 114 114 115 116 120 131 146 153 155 155 158 162 166 169 166 161 153 148 149 146 136 122 110 106 107 110 121
147 142 138 136 134 132 131 130 129 127 127 126 125 123 121 121 120 119 117 116 116 116 116 115 116 118 119 119 118 115 110 102 95 93 94 98 101 102 104 109 117 123 130 137 139 140 143 156 172 176 177 174 173 174 177 179 177 173 168 165 163 159 139 107 85 80 86 93 108
140 137 134 131 130 130 129 129 129 128 128 127 125 123 121 120 119 118 118 118 118 116 114 111 107 107 109 111 114 115 115 111 107 101 95 95 101 106 112 118 129 140 151 159 164 165 169 172 183 191 192 188 184 181 181 184 183 180 176 174 171 164 144 103 80 76 79 85 96
136 134 132 131 132 132 132 133 134 133 132 130 126 123 121 120 121 121 121 121 121 120 119 117 113 110 107 107 110 114 118 121 123 121 115 111 115 121 129 140 154 163 169 175 188 193 196 197 197 197 196 195 187 185 185 188 188 185 182 180 176 167 149 117 95 81 73 70 74
135 135 135 137 136 136 137 138 138 136 133 129 126 124 123 123 123 123 123 124 125 126 126 127 127 127 125 121 120 121 124 128 133 136 138 140 144 149 157 168 182 190 196 200 210 216 219 218 212 205 198 192 187 186 188 194 194 193 190 187 180 171 157 139 123 102 71 44 43
139 139 140 139 139 140 141 140 137 134 133 132 131 130 128 126 123 123 123 125 125 126 126 130 133 135 135 132 134 136 139 143 145 148 151 156 163 170 180 189 198 207 215 218 224 228 231 230 222 213 203 190 188 188 189 192 194 195 193 189 180 167 155 147 140 130 105 55 40
147 145 143 140 142 143 142 138 137 139 141 141 139 135 130 124 123 123 123 124 122 120 119 123 128 130 131 134 142 147 151 155 158 162 166 169 175 183 190 200 207 215 221 224 228 232 235 235 230 219 207 193 190 190 189 188 189 186 183 176 162 151 147 146 145 138 126 98 66
151 148 146 146 147 146 144 143 146 149 148 145 140 134 129 126 125 126 125 125 124 125 127 129 123 121 125 139 148 153 158 165 170 172 175 180 187 193 199 206 213 222 226 229 232 235 238 239 236 227 213 196 191 189 187 185 180 175 168 158 147 143 143 144 142 137 127 113 93
153 152 152 153 152 151 152 155 154 152 149 143 137 132 129 129 130 131 132 133 136 140 142 137 129 131 141 151 153 159 168 182 182 181 182 189 198 206 212 215 218 226 231 234 237 241 243 244 243 235 221 199 188 178 175 173 168 165 161 155 149 146 145 145 141 136 129 119 106
156 156 155 155 155 157 158 158 154 150 146 143 139 137 136 136 139 142 144 146 146 142 136 126 131 143 152 155 157 165 177 191 192 192 195 199 207 214 220 221 223 229 235 237 242 245 248 249 247 240 225 199 181 167 162 162 160 159 157 155 151 147 145 142 140 138 132 125 119
159 158 158 157 159 160 159 155 153 150 148 145 144 143 144 145 148 151 151 146 139 134 132 132 141 149 155 158 166 176 185 191 197 200 202 205 211 217 222 225 225 230 235 239 244 248 251 252 249 241 225 194 168 151 147 149 149 147 146 144 145 145 144 142 142 139 135 130 127
161 160 160 160 161 160 158 156 155 153 151 150 149 149 149 149 146 144 143 139 136 139 145 153 156 160 164 169 179 189 196 200 202 205 207 209 212 218 223 226 228 232 236 241 246 250 253 254 250 239 215 173 151 140 139 139 139 138 137 136 136 136 137 138 139 138 135 131 128
164 162 162 162 160 159 158 158 157 155 153 153 155 154 152 148 146 148 151 151 147 147 151 158 162 165 168 171 178 189 199 205 204 205 207 209 212 217 222 226 231 236 239 244 249 252 254 255 248 228 189 151 139 134 135 134 133 133 131 129 124 121 121 123 124 126 127 128 124
166 164 163 162 160 160 159 160 159 158 157 159 161 160 157 153 154 158 162 163 153 148 148 153 156 159 164 169 176 186 195 204 207 209 210 211 214 220 225 231 237 240 242 247 252 255 256 254 236 197 156 136 131 129 132 133 133 133 132 129 122 114 105 99 103 109 118 127 126
168 165 164 162 161 161 161 162 162 162 163 166 166 166 165 161 159 161 163 164 154 151 153 158 158 164 175 185 189 193 196 201 206 211 214 213 216 222 230 236 242 245 247 250 254 257 255 246 204 160 139 126 123 124 128 131 132 132 131 130 124 115 101 92 98 107 120 134 134
170 166 163 161 162 163 164 164 165 167 170 172 171 171 169 164 158 160 164 166 160 163 168 171 177 185 193 197 201 204 204 201 204 212 217 218 217 221 229 238 246 250 253 257 259 257 248 216 164 142 131 122 122 124 126 126 126 127 126 125 119 105 88 87 104 119 134 147 146
170 167 164 162 163 165 165 166 169 172 174 174 174 172 168 160 157 162 169 171 168 172 178 185 191 195 198 198 200 205 209 209 209 212 215 216 213 215 222 234 245 254 261 264 261 250 222 167 145 136 131 126 128 130 129 127 125 125 122 118 107 88 70 72 100 124 144 160 158
171 168 165 164 164 165 166 168 172 174 174 172 171 169 166 160 160 168 174 174 171 174 182 191 197 199 197 194 196 202 210 217 215 213 211 210 208 209 213 224 240 257 267 266 252 222 174 147 141 137 135 131 132 133 132 129 127 125 121 116 108 93 75 67 90 118 147 167 165
170 168 167 166 165 165 167 169 173 173 170 167 167 168 169 167 165 169 172 174 172 176 183 191 194 194 192 189 191 196 204 215 215 212 208 204 205 206 207 213 229 255 266 258 224 181 155 146 143 141 138 132 133 134 134 133 131 129 128 125 122 115 102 81 85 100 130 164 168
168 168 168 167 166 166 166 168 169 168 166 166 168 169 168 165 159 161 167 173 175 177 178 180 184 187 189 188 187 190 196 205 209 208 203 198 202 202 201 197 205 233 253 241 189 166 155 151 149 146 143 135 135 137 140 139 137 138 140 140 136 132 128 119 104 96 99 118 158